COSMOS 2251 DEB, 34316

Orbit data source: Space-Track

COSMOS 2251 DEB, 34316 is space debris in LEO originally from a launch on Wed, 16 Jun 1993 UTC launched from the Plesetsk Missile And Space Complex (PKMTR). The debris from Iridium 33, an American commercial communications satellite, has been tracked extensively since its accidental collision with the defunct Russian satellite Cosmos 2251 in 2009. This event, occurring at high speed in low Earth orbit (LEO), generated thousands of pieces of space debris, significantly increasing the risk of further collisions. The Iridium 33 debris cloud has impacted space traffic management and orbital debris mitigation strategies, making it a subject of ongoing study in space situational awareness.

Loading next visibility...
Identifier
34316, 1993-036NN
Orbit
LEO
Country
Flag of CISCIS
Related business
Manufacturer
Unknown
Mission
Spacecraft
Bus & Motor
Unknown
Mass
Unknown
Launch date (UTC)
1993-06-16 (33 years ago)
Launch vehicle
Unknown
Launch site
Plesetsk Missile And Space Complex (PKMTR)
Object type
Payload
Rocket body
Debris
Shape & HBR
Unknown shape, 0.1 m
Radar Cross Section
Small (<0.1 m²)

Expand to show TLE details & history
Last TLE update: 17 hours ago

TLE from 17 hours ago
0 COSMOS 2251 DEB
1 34316U 93036NN  26034.52433938  .00021749  00000-0  20124-2 0  9994
2 34316  74.0614 230.9520 0010085 315.3075  44.7296 14.94437620899974
Epoch: 2026-02-03T12:35Z
TLE epoch observation values (Epoch: 2026-02-03T12:35:02.922Z)
Latitude
0.00004°
Longitude
-91.5142°
Altitude
581.816 km
Speed
7.572 km/s
True Right ascension
15h 23m 48s
True Declination
0° 00' 00"
Sunlit
Object was in daylight at epoch
Visualization orbit readout
Latitude
Unknown
Longitude
Unknown
Altitude
Unknown
Speed
Unknown
Apparent Right ascension
Unknown
Apparent Declination
Unknown
Sunlit
N/A
Visualization observer readout
Local Sidereal Time
07:48:09
Azimuth
Unknown
Elevation
Unknown
Doppler factor
Unknown
Orbital elements
Apogee altitude
588.695 km
Perigee altitude
574.657 km
Semi-major axis
6,959.813 km
Eccentricity
0.00101
Inclination
74.0614°
RAAN
230.952°
Arg. of periapsis
315.3075°
True anomaly
44.811°
Mean anomaly
44.7296°
Eccentric anomaly
44.77029°
Mean motion
3.73806 °/min
Orbital period
96.31 mins
BSTAR
0.0020124
Loading maneuver chart data...
Computing Atmospheric mass density...
Loading historical data...
Loading historical data...
Loading historical data...
Loading historical data...
Loading historical data...
Loading historical data...
Loading historical data...

Documentation

Showing up to 5 results
|